FW6934 Weather Reports


time (UTC)temp
C
wind
direction
speed
KPH
gust
KPH
rain 1hr
cm
rain 24hr
cm
rain mn
cm
humidity
%
barometer
mb
20260507223001 20 326 6.4 12.9 0.00 0.00 0.00 54 1005.6
20260507222551 20 41 3.2 8.0 0.00 0.00 0.00 55 1005.6
20260507222038 20 55 3.2 11.3 0.00 0.00 0.00 53 1005.7
20260507221508 20 14 1.6 11.3 0.00 0.00 0.00 53 1005.8
20260507221059 20 350 1.6 8.0 0.00 0.00 0.00 56 1005.8
20260507220547 19 81 3.2 8.0 0.00 0.00 0.00 55 1006.0
20260507220005 19 271 3.2 9.7 0.00 0.00 0.00 54 1006.0
20260507215557 19 292 4.8 9.7 0.00 0.00 0.00 54 1006.0
20260507215045 18 28 0.0 4.8 0.00 0.00 0.00 56 1006.0
20260507214515 18 48 3.2 6.4 0.00 0.00 0.00 59 1006.0
20260507214003 18 49 1.6 9.7 0.00 0.00 0.00 56 1006.5
20260507213553 18 53 4.8 9.7 0.00 0.00 0.00 56 1006.2
20260507213013 18 36 3.2 4.8 0.00 0.00 0.00 60 1006.3
20260507212502 18 33 0.0 11.3 0.00 0.00 0.00 55 1006.2
20260507212053 18 39 3.2 11.3 0.00 0.00 0.00 55 1006.3
20260507211514 18 32 0.0 8.0 0.00 0.00 0.00 57 1006.4
20260507211002 18 331 1.6 8.0 0.00 0.00 0.00 55 1006.4
20260507210556 18 9 0.0 11.3 0.00 0.00 0.00 57 1006.5
20260507210007 18 360 6.4 11.3 0.00 0.00 0.00 59 1006.6
20260507205559 18 30 6.4 11.3 0.00 0.00 0.00 56 1006.6
20260507205049 18 42 3.2 8.0 0.00 0.00 0.00 59 1006.7
20260507204504 18 61 1.6 9.7 0.00 0.00 0.00 60 1006.7
20260507204054 18 86 0.0 9.7 0.00 0.00 0.00 58 1006.8
20260507203541 18 18 4.8 9.7 0.00 0.00 0.00 57 1006.9
20260507203027 18 348 4.8 9.7 0.00 0.00 0.00 57 1006.9
20260507202601 18 47 3.2 9.7 0.00 0.00 0.00 57 1007.1
20260507202052 18 75 6.4 9.7 0.00 0.00 0.00 58 1007.1
20260507201507 18 36 3.2 9.7 0.00 0.00 0.00 57 1007.2
20260507201058 18 18 3.2 11.3 0.00 0.00 0.00 59 1007.2
20260507200546 17 46 3.2 11.3 0.00 0.00 0.00 58 1007.2
20260507200007 17 331 3.2 11.3 0.00 0.00 0.00 61 1007.4
20260507195554 17 66 1.6 9.7 0.00 0.00 0.00 59 1007.5
20260507195044 17 60 3.2 14.5 0.00 0.00 0.00 62 1007.5
20260507194504 17 9 3.2 14.5 0.00 0.00 0.00 62 1007.4
20260507194055 17 202 1.6 9.7 0.00 0.00 0.00 59 1007.5
20260507193542 17 169 3.2 12.9 0.00 0.00 0.00 62 1007.6
20260507193011 17 51 4.8 9.7 0.00 0.00 0.00 63 1007.7
20260507192553 16 276 1.6 9.7 0.00 0.00 0.00 61 1007.7
20260507192040 16 38 1.6 9.7 0.00 0.00 0.00 63 1007.8
20260507191501 16 255 3.2 12.9 0.00 0.00 0.00 63 1007.8
20260507191051 16 14 4.8 11.3 0.00 0.00 0.00 64 1007.8
20260507190539 16 313 3.2 12.9 0.00 0.00 0.00 63 1007.9
20260507190059 16 355 6.4 12.9 0.00 0.00 0.00 63 1007.9
20260507185547 15 355 1.6 8.0 0.00 0.00 0.00 64 1008.0
20260507185036 16 360 4.8 12.9 0.00 0.00 0.00 64 1008.1
20260507184559 16 299 3.2 12.9 0.00 0.00 0.00 64 1008.2
20260507184047 16 26 3.2 11.3 0.00 0.00 0.00 66 1008.2
20260507183539 15 50 6.4 11.3 0.00 0.00 0.00 65 1008.2
20260507183059 15 40 4.8 8.0 0.00 0.00 0.00 65 1008.1
20260507182546 15 5 0.0 8.0 0.00 0.00 0.00 66 1008.2
20260507182034 15 58 4.8 9.7 0.00 0.00 0.00 66 1008.3
20260507181503 14 51 3.2 9.7 0.00 0.00 0.00 68 1008.4
20260507181054 14 109 0.0 6.4 0.00 0.00 0.00 68 1008.5
20260507180541 13 53 3.2 6.4 0.00 0.00 0.00 67 1008.6
20260507180103 13 355 1.6 6.4 0.00 0.00 0.00 67 1008.7
20260507175549 13 327 4.8 8.0 0.00 0.00 0.00 69 1008.6
20260507175038 13 42 4.8 9.7 0.00 0.00 0.00 68 1008.8
20260507174604 13 346 4.8 9.7 0.00 0.00 0.00 70 1008.8
20260507174048 13 309 4.8 8.0 0.00 0.00 0.00 68 1008.8
20260507173535 13 355 3.2 9.7 0.00 0.00 0.00 68 1008.8
20260507173013 13 355 4.8 9.7 0.00 0.00 0.00 70 1008.8
20260507172558 13 119 0.0 4.8 0.00 0.00 0.00 72 1008.9
20260507172045 12 28 1.6 6.4 0.00 0.00 0.00 70 1008.9
20260507171505 12 313 0.0 8.0 0.00 0.00 0.00 69 1009.0
20260507171056 12 349 4.8 8.0 0.00 0.00 0.00 71 1008.9
20260507170544 12 120 4.8 8.0 0.00 0.00 0.00 70 1008.9
20260507170002 12 20 1.6 9.7 0.00 0.00 0.00 69 1008.9
20260507165552 12 38 3.2 12.9 0.00 0.00 0.00 70 1008.9
20260507165041 12 13 3.2 12.9 0.00 0.00 0.00 70 1009.0
20260507164502 12 59 4.8 12.9 0.00 0.00 0.00 71 1009.0
20260507164052 12 49 4.8 12.9 0.00 0.00 0.00 72 1009.0
20260507163540 12 61 4.8 9.7 0.00 0.00 0.00 71 1009.0
20260507163009 12 327 6.4 11.3 0.00 0.00 0.00 71 1009.0
20260507162601 12 250 1.6 6.4 0.00 0.00 0.00 72 1009.0
20260507162049 12 276 1.6 9.7 0.00 0.00 0.00 72 1009.0
20260507161509 11 9 4.8 9.7 0.00 0.00 0.00 72 1009.0
20260507161058 11 51 4.8 12.9 0.00 0.00 0.00 73 1009.0
20260507160548 11 16 4.8 12.9 0.00 0.00 0.00 73 1009.0
20260507160004 11 55 3.2 8.0 0.00 0.00 0.00 74 1009.0
20260507155553 11 48 1.6 11.3 0.00 0.00 0.00 72 1009.1
20260507155041 11 346 3.2 11.3 0.00 0.00 0.00 73 1009.1
20260507154511 11 22 3.2 11.3 0.00 0.00 0.00 73 1009.0
20260507154101 11 62 4.8 11.3 0.00 0.00 0.00 73 1009.0
20260507153550 11 28 3.2 12.9 0.00 0.00 0.00 75 1009.0
20260507153008 11 165 1.6 12.9 0.00 0.00 0.00 74 1009.0
20260507152558 11 235 3.2 9.7 0.00 0.00 0.00 75 1009.0
20260507152047 10 315 4.8 9.7 0.00 0.00 0.00 75 1009.0
20260507151516 10 286 0.0 9.7 0.00 0.00 0.00 76 1009.0
20260507151004 10 26 4.8 11.3 0.00 0.00 0.00 75 1009.0
20260507150555 10 298 3.2 8.0 0.00 0.00 0.00 75 1009.0
20260507150013 10 360 3.2 8.0 0.00 0.00 0.00 76 1009.0
20260507145502 10 42 4.8 9.7 0.00 0.00 0.00 76 1009.0
20260507145055 10 89 4.8 9.7 0.00 0.00 0.00 76 1009.0
20260507144515 10 284 1.6 8.0 0.00 0.00 0.00 76 1009.0
20260507144102 10 315 0.0 8.0 0.00 0.00 0.00 76 1009.0
20260507143551 10 250 3.2 8.0 0.00 0.00 0.00 76 1009.0
20260507143010 10 271 3.2 9.7 0.00 0.00 0.00 76 1009.0
20260507142559 10 262 3.2 9.7 0.00 0.00 0.00 76 1008.9
20260507142046 10 79 3.2 9.7 0.00 0.00 0.00 76 1008.8
20260507141508 10 35 0.0 4.8 0.00 0.00 0.00 76 1008.9
20260507141058 10 360 0.0 4.8 0.00 0.00 0.00 76 1008.8
20260507140546 10 22 1.6 4.8 0.00 0.00 0.00 76 1008.9
20260507140012 10 332 0.0 6.4 0.00 0.00 0.00 76 1008.8
20260507135502 10 355 3.2 6.4 0.00 0.00 0.00 76 1008.7
20260507135055 10 34 1.6 6.4 0.00 0.00 0.00 76 1008.7
20260507134510 10 84 1.6 6.4 0.00 0.00 0.00 76 1008.7
20260507134101 10 286 3.2 11.3 0.00 0.00 0.00 76 1008.7
20260507133549 10 281 0.0 11.3 0.00 0.00 0.00 76 1008.7
20260507133010 10 331 1.6 4.8 0.00 0.00 0.00 76 1008.5
20260507132601 10 62 0.0 4.8 0.00 0.00 0.00 76 1008.6
20260507132048 10 306 1.6 4.8 0.00 0.00 0.00 76 1008.5
20260507131518 10 348 0.0 4.8 0.00 0.00 0.00 76 1008.4
20260507131052 10 347 1.6 6.4 0.00 0.00 0.00 76 1008.4
20260507130544 10 19 1.6 6.4 0.00 0.00 0.00 76 1008.5
20260507130110 10 339 1.6 4.8 0.00 0.00 0.00 76 1008.5
20260507125550 10 336 0.0 4.8 0.00 0.00 0.00 76 1008.4
20260507125035 10 336 1.6 4.8 0.00 0.00 0.00 76 1008.4
20260507124505 10 340 1.6 4.8 0.00 0.00 0.00 76 1008.4
20260507124057 10 348 0.0 6.4 0.00 0.00 0.00 76 1008.4
20260507123546 10 348 1.6 6.4 0.00 0.00 0.00 76 1008.4
20260507123005 10 333 0.0 6.4 0.00 0.00 0.00 76 1008.5
20260507122555 10 333 1.6 6.4 0.00 0.00 0.00 76 1008.5
20260507122043 10 355 3.2 6.4 0.00 0.00 0.00 76 1008.6
20260507121505 10 19 3.2 6.4 0.00 0.00 0.00 76 1008.6
20260507121056 10 107 0.0 4.8 0.00 0.00 0.00 76 1008.6
20260507120547 10 342 0.0 8.0 0.00 0.00 0.00 76 1008.6
20260507120005 10 316 0.0 4.8 0.00 0.00 0.00 76 1008.7
20260507115553 10 313 0.0 4.8 0.00 0.00 0.00 76 1008.8
20260507115041 10 319 1.6 11.3 0.00 0.00 0.00 76 1008.8
20260507114512 10 298 3.2 11.3 0.00 0.00 0.00 76 1008.8
20260507114104 10 306 0.0 3.2 0.00 0.00 0.00 76 1008.8
20260507113556 10 306 0.0 4.8 0.00 0.00 0.00 76 1008.7
20260507113012 10 304 0.0 4.8 0.00 0.00 0.00 76 1008.8
20260507112501 10 273 1.6 4.8 0.00 0.00 0.00 76 1008.8
20260507112054 10 263 1.6 3.2 0.00 0.00 0.00 76 1008.8
20260507111512 10 56 0.0 3.2 0.00 0.00 0.00 76 1008.9
20260507111102 11 55 0.0 6.4 0.00 0.00 0.00 76 1008.9
20260507110550 11 56 1.6 8.0 0.00 0.00 0.00 76 1008.9
20260507110008 11 321 3.2 8.0 0.00 0.00 0.00 76 1008.9
20260507105559 11 340 1.6 11.3 0.00 0.00 0.00 76 1008.9
20260507105049 11 312 0.0 8.0 0.00 0.00 0.00 77 1009.0
20260507104505 11 82 1.6 8.0 0.00 0.00 0.00 76 1009.0
20260507104055 11 34 1.6 6.4 0.00 0.00 0.00 77 1009.0
20260507103544 11 46 0.0 4.8 0.00 0.00 0.00 77 1009.0
20260507103003 11 332 0.0 6.4 0.00 0.00 0.00 77 1009.0
20260507102554 11 323 1.6 6.4 0.00 0.00 0.00 76 1009.1
20260507102042 11 313 1.6 8.0 0.00 0.00 0.00 76 1009.1
20260507101503 11 304 1.6 8.0 0.00 0.00 0.00 76 1009.2
20260507101053 11 292 3.2 6.4 0.00 0.00 0.00 76 1009.1
20260507100540 11 355 1.6 9.7 0.00 0.00 0.00 76 1009.2
20260507100113 11 348 3.2 9.7 0.00 0.00 0.00 76 1009.1
20260507095550 11 72 3.2 9.7 0.00 0.00 0.00 76 1009.3
20260507095039 11 14 3.2 9.7 0.00 0.00 0.00 76 1009.3
20260507094600 11 23 3.2 8.0 0.00 0.00 0.00 76 1009.3
20260507094049 11 341 3.2 8.0 0.00 0.00 0.00 76 1009.3
20260507093537 11 334 0.0 8.0 0.00 0.00 0.00 76 1009.3
20260507093100 11 336 3.2 8.0 0.00 0.00 0.00 76 1009.3
20260507092546 11 19 1.6 8.0 0.00 0.00 0.00 76 1009.4
20260507092036 11 325 3.2 8.0 0.00 0.00 0.00 76 1009.4
20260507091559 11 16 3.2 8.0 0.00 0.00 0.00 76 1009.4
20260507091047 11 355 3.2 8.0 0.00 0.00 0.00 77 1009.6
20260507090535 11 34 4.8 8.0 0.00 0.00 0.00 77 1009.6
20260507090055 11 5 1.6 6.4 0.00 0.00 0.00 77 1009.6
20260507085544 11 343 0.0 6.4 0.00 0.00 0.00 77 1009.7
20260507085033 11 344 3.2 6.4 0.00 0.00 0.00 77 1009.7
20260507084559 11 305 0.0 4.8 0.00 0.00 0.00 77 1009.7
20260507084044 11 305 0.0 4.8 0.00 0.00 0.00 77 1009.6
20260507083533 11 334 0.0 3.2 0.00 0.00 0.00 78 1009.5
20260507083004 11 294 0.0 6.4 0.00 0.00 0.00 78 1009.5
20260507082553 11 285 1.6 6.4 0.00 0.00 0.00 78 1009.7
20260507082045 11 342 1.6 6.4 0.00 0.00 0.00 78 1009.6
20260507081501 11 355 1.6 6.4 0.00 0.00 0.00 78 1009.6
20260507081052 11 317 1.6 6.4 0.00 0.00 0.00 78 1009.5
20260507080541 11 12 1.6 8.0 0.00 0.00 0.00 78 1009.5
20260507075548 11 320 0.0 4.8 0.00 0.00 0.00 78 1009.6
20260507075037 11 355 3.2 4.8 0.00 0.00 0.00 78 1009.6
20260507074625 11 266 0.0 4.8 0.00 0.00 0.00 78 1009.6
20260507074048 11 237 0.0 4.8 0.00 0.00 0.00 78 1009.5
20260507073537 11 355 0.0 6.4 0.00 0.00 0.00 78 1009.5
20260507073008 11 355 3.2 6.4 0.00 0.00 0.00 78 1009.5
20260507072558 11 345 0.0 8.0 0.00 0.00 0.00 78 1009.6
20260507072051 12 5 3.2 12.9 0.00 0.00 0.00 78 1009.5
20260507071509 12 11 1.6 8.0 0.00 0.00 0.00 78 1009.5
20260507071057 12 5 3.2 8.0 0.00 0.00 0.00 78 1009.5
20260507070546 12 336 0.0 6.4 0.00 0.00 0.00 78 1009.4
20260507070008 12 262 0.0 4.8 0.00 0.00 0.00 78 1009.3
20260507065554 12 267 0.0 4.8 0.00 0.00 0.00 78 1009.3
20260507065043 12 267 1.6 4.8 0.00 0.00 0.00 78 1009.3
20260507064507 12 319 0.0 6.4 0.00 0.00 0.00 78 1009.4
20260507064055 12 360 0.0 6.4 0.00 0.00 0.00 77 1009.4
20260507063543 12 35 0.0 4.8 0.00 0.00 0.00 77 1009.6
20260507063005 12 307 0.0 4.8 0.00 0.00 0.00 77 1009.5
20260507062555 12 303 0.0 6.4 0.00 0.00 0.00 77 1009.5
20260507062043 12 74 1.6 8.0 0.00 0.00 0.00 77 1009.5
20260507061503 12 327 3.2 9.7 0.00 0.00 0.00 76 1009.6
20260507061053 12 248 3.2 12.9 0.00 0.00 0.00 76 1009.5
20260507060541 12 311 4.8 12.9 0.00 0.00 0.00 76 1009.6
20260507060105 12 69 3.2 16.1 0.00 0.00 0.00 76 1009.6
20260507055549 13 340 6.4 16.1 0.00 0.00 0.00 76 1009.5
20260507055036 13 277 3.2 12.9 0.00 0.00 0.00 76 1009.4
20260507054506 13 350 4.8 12.9 0.00 0.00 0.00 76 1009.4
20260507054053 13 11 3.2 9.7 0.00 0.00 0.00 76 1009.4
20260507053542 13 42 4.8 12.9 0.00 0.00 0.00 75 1009.4
20260507053003 13 349 4.8 12.9 0.00 0.00 0.00 76 1009.3
20260507052555 13 34 3.2 6.4 0.00 0.00 0.00 75 1009.2
20260507052040 13 350 1.6 6.4 0.00 0.00 0.00 75 1009.1
20260507051510 13 77 1.6 6.4 0.00 0.00 0.00 75 1009.1
20260507051104 13 282 3.2 6.4 0.00 0.00 0.00 75 1009.2
20260507050552 13 290 0.0 4.8 0.00 0.00 0.00 75 1009.2
20260507050008 13 284 0.0 4.8 0.00 0.00 0.00 74 1009.1
20260507045601 13 14 1.6 4.8 0.00 0.00 0.00 74 1009.2
20260507045046 14 311 1.6 8.0 0.00 0.00 0.00 74 1009.2
20260507044507 14 315 3.2 9.7 0.00 0.00 0.00 74 1009.3
20260507044102 14 302 3.2 9.7 0.00 0.00 0.00 74 1009.2
20260507043546 14 297 0.0 16.1 0.00 0.00 0.00 73 1009.2
20260507043008 14 312 6.4 16.1 0.00 0.00 0.00 73 1009.1
20260507042558 15 315 4.8 16.1 0.00 0.00 0.00 73 1009.0
20260507042046 15 329 8.0 16.1 0.00 0.00 0.00 73 1009.1
20260507041513 15 29 6.4 19.3 0.00 0.00 0.00 74 1009.0
20260507041055 15 334 3.2 19.3 0.00 0.00 0.00 73 1009.0
20260507040541 15 355 4.8 11.3 0.00 0.00 0.00 75 1008.9
20260507040008 15 34 3.2 9.7 0.00 0.00 0.00 75 1008.8
20260507035558 16 321 3.2 8.0 0.00 0.00 0.00 75 1008.8
20260507035047 16 327 3.2 12.9 0.00 0.00 0.00 75 1008.6
20260507034511 16 329 4.8 12.9 0.00 0.00 0.00 75 1008.6
20260507034057 16 329 3.2 8.0 0.00 0.00 0.00 74 1008.5
20260507033547 16 19 3.2 8.0 0.00 0.00 0.00 74 1008.4
20260507033007 16 34 1.6 8.0 0.00 0.00 0.00 74 1008.3
20260507032557 16 26 4.8 9.7 0.00 0.00 0.00 74 1008.2
20260507032046 16 29 1.6 9.7 0.00 0.00 0.00 74 1008.2
20260507031505 16 14 4.8 11.3 0.00 0.00 0.00 74 1008.1
20260507031056 16 317 3.2 9.7 0.00 0.00 0.00 73 1008.0
20260507030539 17 52 3.2 9.7 0.00 0.00 0.00 73 1008.0
20260507030100 17 15 3.2 8.0 0.00 0.00 0.00 73 1007.9
20260507025549 17 360 1.6 8.0 0.00 0.00 0.00 73 1007.9
20260507025037 17 9 1.6 9.7 0.00 0.00 0.00 72 1007.9
20260507024505 17 30 1.6 9.7 0.00 0.00 0.00 73 1007.8
20260507024054 17 279 0.0 8.0 0.00 0.00 0.00 72 1007.8
20260507023549 17 355 3.2 8.0 0.00 0.00 0.00 71 1007.7
20260507023002 17 5 1.6 9.7 0.00 0.00 0.00 70 1007.7
20260507022554 17 15 4.8 9.7 0.00 0.00 0.00 71 1007.7
20260507022042 18 346 3.2 8.0 0.00 0.00 0.00 71 1007.7
20260507021502 18 344 3.2 6.4 0.00 0.00 0.00 70 1007.7
20260507021055 18 355 3.2 8.0 0.00 0.00 0.00 70 1007.6
20260507020541 18 22 3.2 8.0 0.00 0.00 0.00 70 1007.7
20260507020112 18 21 3.2 8.0 0.00 0.00 0.00 70 1007.7
20260507015551 18 40 3.2 9.7 0.00 0.00 0.00 69 1007.7
20260507015039 18 44 1.6 12.9 0.00 0.00 0.00 70 1007.7
20260507014609 18 20 1.6 12.9 0.00 0.00 0.00 68 1007.8
20260507014051 19 348 4.8 9.7 0.00 0.00 0.00 69 1007.8
20260507013538 19 33 3.2 14.5 0.00 0.00 0.00 68 1007.7
20260507013003 19 336 3.2 12.9 0.00 0.00 0.00 69 1007.7
20260507012553 19 14 4.8 11.3 0.00 0.00 0.00 69 1007.7
20260507012044 20 53 1.6 9.7 0.00 0.00 0.00 68 1007.7
20260507011503 20 351 4.8 9.7 0.00 0.00 0.00 69 1007.7
20260507011053 20 16 3.2 8.0 0.00 0.00 0.00 68 1007.7
20260507010541 20 61 3.2 12.9 0.00 0.00 0.00 70 1007.7
20260507005551 20 246 1.6 12.9 0.00 0.00 0.00 71 1007.6
20260507005039 20 5 4.8 12.9 0.00 0.00 0.00 70 1007.6
20260507004500 20 5 1.6 12.9 0.00 0.00 0.00 69 1007.6
20260507004051 20 314 4.8 12.9 0.00 0.00 0.00 68 1007.6
20260507003540 20 350 6.4 14.5 0.00 0.00 0.00 68 1007.5
20260507003101 20 71 8.0 14.5 0.00 0.00 0.00 67 1007.6
20260507002548 21 355 3.2 8.0 0.00 0.00 0.00 68 1007.5
20260507002036 21 319 3.2 12.9 0.00 0.00 0.00 67 1007.5
20260507001504 21 16 4.8 12.9 0.00 0.00 0.00 68 1007.5
20260507001056 21 324 1.6 12.9 0.00 0.00 0.00 67 1007.3
20260507000546 21 321 0.0 1.6 0.00 0.00 0.00 67 1007.5
20260507000002 21 36 0.0 0.0 0.00 0.00 0.00 65 1007.3
20260506235552 21 36 0.0 6.4 0.00 0.00 0.00 65 1007.4
20260506235042 21 36 3.2 6.4 0.00 0.00 0.00 68 1007.4
20260506234612 21 30 0.0 4.8 0.00 0.00 0.00 67 1007.4
20260506234053 21 348 1.6 4.8 0.00 0.00 0.00 65 1007.3
20260506233538 20 5 0.0 6.4 0.00 0.00 0.00 66 1007.3
20260506233043 20 33 1.6 6.4 0.00 0.00 0.00 68 1007.3
20260506232532 20 351 0.0 6.4 0.00 0.00 0.00 66 1007.4
20260506232019 20 33 0.0 4.8 0.00 0.00 0.00 68 1007.3
20260506231551 20 26 0.0 4.8 0.00 0.00 0.00 68 1007.3
20260506231030 20 22 0.0 6.4 0.00 0.00 0.00 68 1007.5
20260506230517 20 9 1.6 6.4 0.00 0.00 0.00 67 1007.5
20260506230049 20 101 0.0 3.2 0.00 0.00 0.00 67 1007.5
20260506225522 20 107 0.0 6.4 0.00 0.00 0.00 68 1007.6
20260506225001 20 328 1.6 6.4 0.00 0.00 0.00 69 1007.6
20260506224522 20 25 0.0 1.6 0.00 0.00 0.00 69 1007.7
20260506224004 20 40 0.0 1.6 0.00 0.00 0.00 69 1007.7
20260506223555 19 90 0.0 1.6 0.00 0.00 0.00 67 1007.8